Location: Austin
(30.3000°N, 97.7500°W)
Time: 06:12:43
(UTC-05:00)

MSX - Pass Details

Date: 16 June 2025
Orbit: 893 x 905 km, 99.0° (Epoch: 08 July)

Event Time Altitude Azimuth Distance (km) Brightness Sun altitude
Rises 03:21:33 0° 9° (N) 3,512 7.9 -30.2°
Reaches altitude 10° 03:23:59 10° 6° (N) 2,568 7.0 -30.0°
Enters shadow 03:29:09 62° 313° (NW) 999 4.0 -29.4°
